Location: Bay Creek Structure Number 5 Dam
(37.4851°N, 88.6884°W)
Time: 20:05:47
(UTC+00:00)

Daily predictions for brighter satellites

Satellite Brightness Start Highest point End
(mag) Time Altitude Azimuth Time Altitude Azimuth Time Altitude Azimuth
CZ-4C R/B 3.4 23:34:36 10° NNW 23:41:34 44° NE 23:49:20 10° ESE
CORIOLIS 4.3 23:39:37 10° S 23:44:57 81° WSW 23:50:20 10° NNW
Unknown 4.0 23:40:54 10° WSW 23:45:00 66° NW 23:49:08 10° NE
Cosmos 1726 Rocket 4.3 23:41:45 10° SSE 23:45:37 31° E 23:49:30 10° NNE
BREEZE M DEB (TANK) 4.1 23:45:23 10° N 23:46:33 12° NNE 23:48:03 10° NE
Unknown 4.0 23:42:31 10° WSW 23:46:37 64° NW 23:50:44 10° NE
Unknown 4.1 23:44:14 10° WSW 23:48:20 62° NW 23:52:27 10° NE
Cosmos 1844 Rocket 2.8 23:43:02 10° S 23:48:33 56° ESE 23:54:04 10° NNE
Cosmos 2058 Rocket 4.2 23:47:30 10° SE 23:50:54 22° E 23:54:18 10° NE
YAOGAN 6 3.3 23:48:07 10° SE 23:51:28 34° ENE 23:54:49 10° N
Unknown 4.3 23:50:55 10° WSW 23:54:58 54° NW 23:59:03 10° NE
SL-4 R/B 3.6 23:54:41 10° NNW 23:57:18 17° NNE 23:59:48 10° ENE
